CDT,Max TemperatureF,Mean TemperatureF,Min TemperatureF,Max Dew PointF,MeanDew PointF,Min DewpointF,Max Humidity, Mean Humidity, Min Humidity, Max Sea Level PressureIn, Mean Sea Level PressureIn, Min Sea Level PressureIn, Max VisibilityMiles, Mean VisibilityMiles, Min VisibilityMiles, Max Wind SpeedMPH, Mean Wind SpeedMPH, Max Gust SpeedMPH,PrecipitationIn, CloudCover, Events, WindDirDegrees
2013-10-1,67,57,47,52,42,32,80,55,29,29.85,29.64,29.46,10,10,10,29,11,44,0.00,1,,251
2013-10-2,59,47,35,48,41,34,92,75,57,30.05,29.98,29.87,10,10,10,15,4,20,0.04,5,Rain,234
2013-10-3,60,47,33,49,41,33,100,81,62,30.11,30.04,30.00,10,7,0,9,3,10,0.00,3,Fog,21
2013-10-4,57,51,45,46,43,40,89,76,62,30.24,30.20,30.12,10,10,10,17,10,23,T,5,,42
2013-10-5,49,46,43,45,42,38,93,80,66,30.17,30.02,29.90,10,7,2,20,10,26,0.46,8,Rain,73
2013-10-6,58,46,34,45,41,33,96,76,55,29.91,29.81,29.76,10,8,2,14,6,18,0.17,7,Rain,350
2013-10-7,59,46,33,45,38,32,100,74,47,29.94,29.89,29.79,10,9,2,14,5,18,0.00,2,,289
2013-10-8,74,55,35,47,41,33,93,64,35,29.91,29.76,29.64,10,10,10,18,6,29,0.00,0,,167
2013-10-9,71,54,37,51,45,37,100,70,40,30.04,29.94,29.79,10,10,7,7,1,9,0.00,0,,261
2013-10-10,73,59,45,52,49,44,100,75,49,30.02,29.94,29.86,10,10,10,16,7,22,0.00,1,,141
2013-10-11,71,63,55,55,50,46,84,67,49,29.88,29.75,29.52,10,10,7,24,13,32,0.08,2,Rain,137
2013-10-12,62,53,43,54,46,40,93,82,71,30.08,29.72,29.51,10,8,2,17,10,32,0.04,8,Rain,234
2013-10-13,55,42,28,38,33,27,96,69,41,30.42,30.30,30.11,10,10,10,18,6,26,0.00,1,,265
2013-10-14,50,38,26,43,35,24,92,74,56,30.44,30.36,30.23,10,10,7,7,2,9,0.30,6,Rain,106
2013-10-15,46,40,33,41,39,32,96,83,70,30.23,30.07,29.95,10,10,5,14,8,21,0.35,7,Rain,51
2013-10-16,55,40,25,37,32,24,92,69,46,29.99,29.89,29.81,10,9,1,13,3,17,0.00,2,,219
2013-10-17,46,37,28,43,36,29,100,83,65,29.91,29.85,29.80,10,10,5,14,5,18,0.17,7,Rain,342
2013-10-18,48,35,22,35,29,22,100,77,53,29.92,29.87,29.77,10,10,10,16,3,21,0.03,6,,244
2013-10-19,46,37,27,36,33,27,100,83,65,29.77,29.71,29.66,10,9,5,14,3,17,0.12,6,Rain-Snow,252
2013-10-20,41,34,27,35,31,25,92,83,73,29.83,29.74,29.69,10,7,1,16,4,22,0.14,7,Rain-Snow,283
2013-10-21,39,33,27,34,28,23,92,84,76,29.94,29.82,29.76,10,8,1,18,9,25,0.04,8,Rain-Snow,299
2013-10-22,40,34,27,29,27,21,92,71,50,30.05,29.99,29.93,10,9,2,10,5,14,T,6,Snow,304
2013-10-23,37,33,29,28,26,24,92,78,64,30.09,30.00,29.92,10,8,1,15,8,21,0.01,8,Snow,298
2013-10-24,39,33,27,36,29,24,92,84,75,30.25,30.15,30.05,10,9,2,17,6,23,0.04,7,Rain-Snow,274
2013-10-25,49,38,26,37,30,23,92,71,50,30.23,29.89,29.64,10,10,5,23,10,35,0.04,6,Rain,245
2013-10-26,41,36,30,34,30,25,89,74,59,30.07,29.94,29.73,10,9,1,20,9,25,0.03,8,Rain-Snow,314
2013-10-27,41,34,27,30,25,15,85,71,56,30.40,29.95,29.74,10,10,10,21,8,29,T,7,Rain,13
2013-10-28,35,26,17,18,16,14,84,64,43,30.61,30.53,30.42,10,10,10,12,4,16,0.00,4,,13
2013-10-29,40,26,12,21,15,8,88,63,37,30.52,30.35,30.19,10,10,7,9,2,15,0.00,0,,226
2013-10-30,40,30,19,36,28,16,92,81,70,30.17,29.95,29.69,10,10,8,8,1,12,T,7,,133
2013-10-31,41,39,37,37,36,35,100,90,79,29.68,29.50,29.38,10,6,1,7,1,8,0.01,8,Rain,298